This is the latest recevied weather packets stored in our database for station/object WY7EM. If no packets are shown the sender has not sent any weather packets the latest 10 day(s).
| Time | Temp. | Humidity | Pressure | Rain* | Wind** | Luminosity | Snow |
|---|---|---|---|---|---|---|---|
| 1777713364 | 12.78° C | 21% | 1018.5 hPa | 0 mm | - | 0 W/m² | - |
| 1777713061 | 12.78° C | 21% | 1018.5 hPa | 0 mm | - | 0 W/m² | - |
| 1777712758 | 12.78° C | 21% | 1018.5 hPa | 0 mm | - | 0 W/m² | - |
| 1777712455 | 13.33° C | 21% | 1018.6 hPa | 0 mm | - | 0 W/m² | - |
| 1777712151 | 13.33° C | 21% | 1018.3 hPa | 0 mm | - | 0 W/m² | - |
| 1777711849 | 13.33° C | 21% | 1018.7 hPa | 0 mm | - | 0 W/m² | - |
| 1777711546 | 12.78° C | 22% | 1018.6 hPa | 0 mm | - | 0 W/m² | - |
| 1777711246 | 12.78° C | 22% | 1018.8 hPa | 0 mm | - | 0 W/m² | - |
| 1777710943 | 12.22° C | 23% | 1018.7 hPa | 0 mm | - | 0 W/m² | - |
| 1777710640 | 12.78° C | 23% | 1018.6 hPa | 0 mm | - | 0 W/m² | - |
| 1777710337 | 12.78° C | 23% | 1018.6 hPa | 0 mm | - | 0 W/m² | - |
| 1777710034 | 12.78° C | 23% | 1018.5 hPa | 0 mm | - | 0 W/m² | - |
| 1777709732 | 12.78° C | 22% | 1018.5 hPa | 0 mm | - | 0 W/m² | - |
| 1777709429 | 13.33° C | 22% | 1018.6 hPa | 0 mm | - | 0 W/m² | - |
| 1777709127 | 13.89° C | 23% | 1018.6 hPa | 0 mm | - | 0 W/m² | - |
| 1777708824 | 13.89° C | 23% | 1018.6 hPa | 0 mm | - | 0 W/m² | - |
| 1777708520 | 13.33° C | 23% | 1018.6 hPa | 0 mm | - | 0 W/m² | - |
| 1777708219 | 13.33° C | 21% | 1018.6 hPa | 0 mm | - | 0 W/m² | - |
| 1777707916 | 13.89° C | 22% | 1018.5 hPa | 0 mm | - | 0 W/m² | - |
| 1777707612 | 13.89° C | 21% | 1018.5 hPa | 0 mm | - | 0 W/m² | - |
| 1777707309 | 13.89° C | 22% | 1018.5 hPa | 0 mm | - | 0 W/m² | - |
| 1777707007 | 13.89° C | 22% | 1018.5 hPa | 0 mm | - | 0 W/m² | - |
| 1777706703 | 13.89° C | 22% | 1018.3 hPa | 0 mm | - | 0 W/m² | - |
| 1777706401 | 13.89° C | 22% | 1018.3 hPa | 0 mm | - | 0 W/m² | - |
| 1777706098 | 13.89° C | 22% | 1018.3 hPa | 0 mm | - | 0 W/m² | - |
* Rain latest hour (hover to see other rain measurements)
** Current wind speed in m/s (hover to see current wind gust speed)